Regional Weather Roundup
Issued by NWS

Home | Current Version | Previous Version | Text Only | Print | Product List | Glossary On
Versions: 1 2 3 4 5 6 7 8 9 10 11 12 13 14 15 16 17 18 19 20 21 22 23 24 25 26 27 28
000
ASUS44 KLIX 102113
RWRLA
LOUISIANA WEATHER ROUNDUP
NATIONAL WEATHER SERVICE NEW ORLEANS LA
300 PM CST SAT DEC 10 2016

NOTE: "FAIR" INDICATES FEW OR NO CLOUDS BELOW 12,000 FEET WITH NO
      SIGNIFICANT WEATHER AND/OR OBSTRUCTIONS TO VISIBILITY.
      SKY/WX - SKY CONDITION AND SIGNIFICANT WEATHER.
      TMP - AIR TEMPERATURE.    DP   - DEWPOINT TEMPERATURE.
      RH  - RELATIVE HUMIDITY.  PRES - PRESSURE.
      HX  - HEAT INDEX.         WCI  - WIND CHILL INDEX.

*  THESE STATIONS ARE NOT NWS OR FAA STATIONS AND ARE NOT UNDER
   NWS QUALITY CONTROL.

LAZ040-048-061>063-065-066-069-102200-
SOUTHEAST LOUISIANA

CITY           SKY/WX    TMP DP  RH WIND       PRES   REMARKS
N.O. AUDUBON   NOT AVBL
N.O. INTL ARPT MOSUNNY   52  23  32 NE6       30.40F
N.O. LAKEFRONT SUNNY     53  25  33 NE7       30.40F
N.O. DOWNTOWN*   N/A     52  23  32 VRB6      30.40F
RESERVE*       FAIR      54  17  23 E8        30.41F
SLIDELL        SUNNY     56  16  20 VRB5      30.39F
BATON ROUGE    SUNNY     57  19  22 N6        30.40F
BOOTHVILLE     SUNNY     49  35  58 NE10      30.40F
BELLE CHASSE   MOSUNNY   53  24  32 E10       30.40F
BOGALUSA*      FAIR      56  12  17 N5        30.42S
GALLIANO*      CLEAR     52  26  37 NE9       30.39F
NEW ROADS*     FAIR      55  22  27 NE6       30.41F
GONZALES*      FAIR      55  19  25 NE3       30.40F
HAMMOND*       SUNNY     59  14  17 CALM      30.40F
HOUMA*         SUNNY     54  19  26 NE14      30.40S
PORT FOURCHON* CLEAR     52  32  46 NE14G23   30.39F

$$

LAZ041-044-053-054-102200-
SOUTHWEST LOUISIANA

CITY           SKY/WX    TMP DP  RH WIND       PRES   REMARKS
LAKE CHARLES   SUNNY     54  27  35 E9        30.39F
LAFAYETTE      SUNNY     56  19  23 NE8       30.40F
PATTERSON      SUNNY    N/A N/A N/A NE10      30.39F
SALT POINT     NOT AVBL
NEW IBERIA     SUNNY     57  17  21 E9        30.40F
CHENAULT AIRPK SUNNY     57  27  30 E10       30.40F

$$

LAZ027-028-102200-
CENTRAL LOUISIANA

CITY           SKY/WX    TMP DP  RH WIND       PRES   REMARKS
FORT POLK      SUNNY     55  24  30 E7        30.37F
ALEXANDRIA INT SUNNY     53  19  26 SE6       30.40F
ALEXANDRIA     SUNNY     54  21  27 VRB6      30.40F

$$

LAZ001-002-102200-
NORTHWEST LOUISIANA

CITY           SKY/WX    TMP DP  RH WIND       PRES   REMARKS
SHREVEPORT     CLOUDY    50  27  40 SE6       30.37F
BARKSDALE AFB  CLOUDY    50  23  34 S7        30.38F
DTN SHREVEPORT CLOUDY    49  24  37 S8        30.38F

$$

LAZ014-016-102200-
NORTHEAST LOUISIANA

CITY           SKY/WX    TMP DP  RH WIND       PRES   REMARKS
MONROE         SUNNY     51  23  33 VRB3      30.42F
TALLULAH       SUNNY     52  18  26 VRB3      30.43F

$$





USA.gov is the U.S. government's official web portal to all federal, state and local government web resources and services.